,,PA_Meas_PMT16A,,PR_Meas_QMR101_102,,RH_Meas_QMH101,,SR_Meas_QMS101,,TA_Meas_QMH101,,GenWind,,GenWind,
time,status,PA,status,PR,status,RH,status,SR,status,TA,status,DirAvg,status,SpdAvg,
2016-01-23, 07:16:04,VALID,918.835,VALID,0,VALID,104,VALID,102.714,VALID,20.1903,VALID,146,VALID,0.979688,
2016-01-23, 07:17:04,VALID,918.849,VALID,0,VALID,104,VALID,106.367,VALID,20.2894,VALID,139,VALID,1.29883,
2016-01-23, 07:18:04,VALID,918.86,VALID,0,VALID,104,VALID,110.664,VALID,20.4064,VALID,142,VALID,0,
2016-01-23, 07:27:04,VALID,918.943,VALID,0,VALID,104,VALID,126.781,VALID,21.0892,VALID,143,VALID,1.38945,
2016-01-23, 07:28:04,VALID,918.969,VALID,0,VALID,104,VALID,129.359,VALID,21.1852,VALID,138,VALID,1.22227,
2016-01-23, 07:29:04,VALID,918.98,VALID,0,VALID,103.831,VALID,130.863,VALID,21.3234,VALID,130,VALID,1.86094,
2016-01-23, 07:30:04,VALID,919.007,VALID,0,VALID,103.465,VALID,132.905,VALID,21.4599,VALID,139,VALID,0.609375,
2016-01-23, 07:31:04,VALID,919.039,VALID,0,VALID,101.963,VALID,134.624,VALID,21.5363,VALID,136,VALID,1.94531,
2016-01-23, 07:32:04,VALID,919.064,VALID,0,VALID,101.757,VALID,131.615,VALID,21.6534,VALID,159,VALID,1.14258,
2016-01-23, 07:33:04,VALID,919.137,VALID,0,VALID,101.651,VALID,133.227,VALID,21.712,VALID,114,VALID,1.24961,
2016-01-23, 07:34:04,VALID,919.114,VALID,0,VALID,102.215,VALID,141.715,VALID,21.712,VALID,118,VALID,1.29727,
2016-01-23, 07:35:04,VALID,919.167,VALID,0,VALID,102.52,VALID,144.401,VALID,21.712,VALID,155,VALID,0.847266,
2016-01-23, 07:36:04,VALID,919.148,VALID,0,VALID,102.26,VALID,148.376,VALID,21.7705,VALID,138,VALID,0.90625,
2016-01-23, 07:37:04,VALID,919.136,VALID,0,VALID,102.078,VALID,150.203,VALID,21.7705,VALID,142,VALID,1.29258,
2016-01-23, 07:38:04,VALID,919.127,VALID,0,VALID,101.696,VALID,144.723,VALID,21.8079,VALID,124,VALID,1.66367,
2016-01-23, 07:39:04,VALID,919.122,VALID,0,VALID,100.743,VALID,150.74,VALID,21.8876,VALID,136,VALID,2.18086,
2016-01-23, 07:40:04,VALID,919.148,VALID,0,VALID,100.271,VALID,155.575,VALID,21.9656,VALID,129,VALID,1.66836,
2016-01-23, 07:41:04,VALID,919.161,VALID,0,VALID,100.439,VALID,158.476,VALID,22.0632,VALID,170,VALID,0.498828,
2016-01-23, 07:42:04,VALID,919.172,VALID,0,VALID,100.987,VALID,165.244,VALID,22.1803,VALID,177,VALID,1.51914,
2016-01-23, 07:43:04,VALID,919.185,VALID,0,VALID,99.2416,VALID,167.716,VALID,22.2388,VALID,139,VALID,1.00898,
2016-01-23, 07:44:04,VALID,919.233,VALID,0,VALID,99.2111,VALID,168.897,VALID,22.3364,VALID,117,VALID,0.708203,
2016-01-23, 07:45:04,VALID,919.221,VALID,0,VALID,97.6178,VALID,167.931,VALID,22.3347,VALID,146,VALID,1.13477,
2016-01-23, 07:46:04,VALID,919.237,VALID,0,VALID,92.5864,VALID,178.46,VALID,22.4925,VALID,179,VALID,1.05078,
2016-01-23, 07:47:04,VALID,919.275,VALID,0,VALID,88.1419,VALID,183.402,VALID,22.5494,VALID,164,VALID,0.301172,
2016-01-23, 07:48:04,VALID,919.32,VALID,0,VALID,94.1644,VALID,186.303,VALID,22.6487,VALID,94,VALID,1.92422,
2016-01-23, 07:49:04,VALID,919.321,VALID,0,VALID,91.4429,VALID,187.7,VALID,22.6292,VALID,113,VALID,1.53359,
2016-01-23, 07:50:04,VALID,919.365,VALID,0,VALID,96.421,VALID,190.386,VALID,22.5511,VALID,116,VALID,1.55039,
2016-01-23, 07:51:04,VALID,919.384,VALID,0,VALID,94.942,VALID,191.782,VALID,22.4908,VALID,144,VALID,1.51055,
2016-01-23, 07:52:04,VALID,919.433,VALID,0,VALID,95.3308,VALID,192.642,VALID,22.4713,VALID,149,VALID,1.78281,
2016-01-23, 07:53:04,VALID,919.442,VALID,0,VALID,95.8035,VALID,186.733,VALID,22.473,VALID,176,VALID,1.15313,
2016-01-23, 07:54:04,VALID,919.482,VALID,0,VALID,97.9533,VALID,131.938,VALID,22.4925,VALID,89,VALID,1.2418,
2016-01-23, 07:55:04,VALID,919.465,VALID,0,VALID,93.6537,VALID,198.766,VALID,22.473,VALID,118,VALID,1.63203,
2016-01-23, 07:56:04,VALID,919.521,VALID,0,VALID,95.186,VALID,213.056,VALID,22.5511,VALID,109,VALID,0.471484,
2016-01-23, 07:57:04,VALID,919.47,VALID,0,VALID,87.1356,VALID,143.541,VALID,22.6079,VALID,136,VALID,1.04219,
2016-01-23, 07:58:04,VALID,919.532,VALID,0,VALID,90.1012,VALID,182.435,VALID,22.5884,VALID,129,VALID,1.78008,
2016-01-23, 07:59:04,VALID,919.564,VALID,0,VALID,86.0074,VALID,210.8,VALID,22.5884,VALID,97,VALID,2.15313,
2016-01-23, 08:00:04,VALID,919.548,VALID,0,VALID,88.3554,VALID,217.139,VALID,22.647,VALID,119,VALID,1.30273,
2016-01-23, 08:01:04,VALID,919.612,VALID,0,VALID,87.0213,VALID,222.081,VALID,22.6665,VALID,118,VALID,1.48281,
2016-01-23, 08:02:04,VALID,919.6,VALID,0,VALID,86.5258,VALID,227.023,VALID,22.6665,VALID,109,VALID,2.52344,
2016-01-23, 08:03:04,VALID,919.615,VALID,0,VALID,83.8957,VALID,222.403,VALID,22.725,VALID,77,VALID,2.31016,
2016-01-23, 08:04:04,VALID,919.623,VALID,0,VALID,84.841,VALID,224.445,VALID,22.8421,VALID,129,VALID,1.44297,
2016-01-23, 08:05:04,VALID,919.641,VALID,0,VALID,84.9858,VALID,222.081,VALID,22.8794,VALID,111,VALID,0.625391,
2016-01-23, 08:06:04,VALID,919.656,VALID,0,VALID,85.2679,VALID,231.858,VALID,22.9983,VALID,135,VALID,0.886328,
2016-01-23, 08:07:04,VALID,919.701,VALID,0,VALID,85.1307,VALID,234.114,VALID,23.0551,VALID,148,VALID,0.00117188,
2016-01-23, 08:08:04,VALID,919.719,VALID,0,VALID,86.076,VALID,109.805,VALID,23.1917,VALID,130,VALID,0,
2016-01-23, 08:09:04,VALID,919.73,VALID,0,VALID,86.6401,VALID,241.635,VALID,23.3283,VALID,134,VALID,0,
2016-01-23, 08:10:04,VALID,919.721,VALID,0,VALID,83.8881,VALID,257.751,VALID,23.465,VALID,152,VALID,0.505469,
2016-01-23, 08:11:04,VALID,919.773,VALID,0,VALID,84.0482,VALID,260.008,VALID,23.465,VALID,143,VALID,0,
2016-01-23, 08:12:04,VALID,919.753,VALID,0,VALID,85.2298,VALID,266.347,VALID,23.4667,VALID,154,VALID,0,
2016-01-23, 08:13:04,VALID,919.791,VALID,0,VALID,83.1715,VALID,269.785,VALID,23.4472,VALID,146,VALID,0,
2016-01-23, 08:14:04,VALID,919.772,VALID,0,VALID,83.9719,VALID,263.446,VALID,23.4667,VALID,146,VALID,0,
2016-01-23, 08:15:04,VALID,919.81,VALID,0,VALID,82.9123,VALID,265.917,VALID,23.5058,VALID,154,VALID,0,
2016-01-23, 08:16:04,VALID,919.841,VALID,0,VALID,82.3024,VALID,258.289,VALID,23.543,VALID,143,VALID,0,
2016-01-23, 08:17:04,VALID,919.866,VALID,0,VALID,82.554,VALID,284.289,VALID,23.543,VALID,130,VALID,0,
2016-01-23, 08:18:04,VALID,919.866,VALID,0,VALID,83.8652,VALID,284.827,VALID,23.6016,VALID,150,VALID,0.00585938,
2016-01-23, 08:19:04,VALID,919.913,VALID,0,VALID,83.2401,VALID,283.107,VALID,23.6602,VALID,130,VALID,0,
2016-01-23, 08:20:04,VALID,919.937,VALID,0,VALID,82.4396,VALID,286.546,VALID,23.662,VALID,129,VALID,1.32617,
2016-01-23, 08:21:04,VALID,919.965,VALID,0,VALID,83.0419,VALID,296,VALID,23.6602,VALID,143,VALID,1.30391,
2016-01-23, 08:22:04,VALID,919.946,VALID,0,VALID,82.1728,VALID,303.629,VALID,23.6602,VALID,144,VALID,0.8875,
2016-01-23, 08:23:04,VALID,919.974,VALID,0,VALID,83.606,VALID,304.273,VALID,23.795,VALID,131,VALID,0,
2016-01-23, 08:24:04,VALID,919.972,VALID,0,VALID,81.7688,VALID,311.687,VALID,23.8536,VALID,90,VALID,0,
2016-01-23, 08:25:04,VALID,919.991,VALID,0,VALID,82.4091,VALID,310.935,VALID,23.9725,VALID,83,VALID,0,
2016-01-23, 08:26:04,VALID,920.011,VALID,0,VALID,80.1526,VALID,312.439,VALID,24.0506,VALID,156,VALID,0.267188,
2016-01-23, 08:27:04,VALID,920.05,VALID,0,VALID,80.4652,VALID,315.555,VALID,24.111,VALID,144,VALID,0,
2016-01-23, 08:28:04,VALID,920.088,VALID,0,VALID,81.7154,VALID,319.745,VALID,24.1891,VALID,87,VALID,0,
2016-01-23, 08:29:04,VALID,920.098,VALID,0,VALID,80.3584,VALID,325.762,VALID,24.1873,VALID,87,VALID,0,
2016-01-23, 08:30:04,VALID,920.125,VALID,0,VALID,78.9786,VALID,328.448,VALID,24.3044,VALID,148,VALID,0,
2016-01-23, 08:31:04,VALID,920.165,VALID,0,VALID,79.0548,VALID,335.646,VALID,24.5406,VALID,69,VALID,0,
2016-01-23, 08:32:04,VALID,920.141,VALID,0,VALID,78.3535,VALID,335.324,VALID,24.773,VALID,179,VALID,0,
2016-01-23, 08:33:04,VALID,920.18,VALID,0,VALID,76.7068,VALID,339.192,VALID,24.7926,VALID,171,VALID,0,
2016-01-23, 08:34:04,VALID,920.199,VALID,0,VALID,75.9597,VALID,337.043,VALID,24.6735,VALID,161,VALID,0.01875,
2016-01-23, 08:35:04,VALID,920.235,VALID,0,VALID,76.7068,VALID,341.878,VALID,24.5778,VALID,150,VALID,0,
2016-01-23, 08:36:04,VALID,920.23,VALID,0,VALID,76.44,VALID,343.704,VALID,24.5192,VALID,137,VALID,0.404297,
2016-01-23, 08:37:04,VALID,920.248,VALID,0,VALID,77.1947,VALID,344.779,VALID,24.3825,VALID,138,VALID,0,
2016-01-23, 08:38:04,VALID,920.258,VALID,0,VALID,78.5593,VALID,339.192,VALID,24.4002,VALID,87,VALID,0,
2016-01-23, 08:39:04,VALID,920.284,VALID,0,VALID,77.2938,VALID,365.622,VALID,24.2635,VALID,165,VALID,1.87344,
2016-01-23, 08:40:04,VALID,920.285,VALID,0,VALID,79.1768,VALID,360.035,VALID,24.2245,VALID,117,VALID,1.65859,
2016-01-23, 08:41:04,VALID,920.279,VALID,0,VALID,79.2988,VALID,352.407,VALID,24.1854,VALID,142,VALID,1.26172,
2016-01-23, 08:42:04,VALID,920.256,VALID,0,VALID,79.3369,VALID,356.275,VALID,24.2245,VALID,89,VALID,2.00547,
2016-01-23, 08:43:04,VALID,920.247,VALID,0,VALID,78.7041,VALID,365.085,VALID,24.2245,VALID,97,VALID,0,
2016-01-23, 08:44:04,VALID,920.255,VALID,0,VALID,77.8198,VALID,366.374,VALID,24.3416,VALID,170,VALID,0,
2016-01-23, 08:45:04,VALID,920.262,VALID,0,VALID,78.0104,VALID,374.97,VALID,24.4002,VALID,170,VALID,0,
2016-01-23, 08:46:04,VALID,920.257,VALID,0,VALID,77.9113,VALID,367.556,VALID,24.5368,VALID,128,VALID,0,
2016-01-23, 08:47:04,VALID,920.269,VALID,0,VALID,77.9647,VALID,368.523,VALID,24.7126,VALID,162,VALID,0,
2016-01-23, 08:48:04,VALID,920.299,VALID,0,VALID,76.9431,VALID,378.945,VALID,24.9859,VALID,172,VALID,0,
2016-01-23, 08:49:04,VALID,920.292,VALID,0,VALID,74.9001,VALID,393.987,VALID,25.1226,VALID,175,VALID,0,
2016-01-23, 08:50:04,VALID,920.276,VALID,0,VALID,75.7234,VALID,385.391,VALID,25.1402,VALID,92,VALID,0,
2016-01-23, 08:51:04,VALID,920.28,VALID,0,VALID,75.6243,VALID,388.4,VALID,24.9859,VALID,141,VALID,0.0597656,
2016-01-23, 08:52:04,VALID,920.303,VALID,0,VALID,75.8149,VALID,402.152,VALID,24.9645,VALID,110,VALID,0.674609,
2016-01-23, 08:53:04,VALID,920.255,VALID,0,VALID,75.853,VALID,402.367,VALID,24.9255,VALID,158,VALID,0,
2016-01-23, 08:54:04,VALID,920.285,VALID,0,VALID,73.4364,VALID,400.003,VALID,24.9469,VALID,146,VALID,0,
2016-01-23, 08:55:04,VALID,920.321,VALID,0,VALID,75.266,VALID,396.028,VALID,24.9488,VALID,155,VALID,0,
2016-01-23, 08:56:04,VALID,920.285,VALID,0,VALID,76.3561,VALID,390.763,VALID,25.0464,VALID,127,VALID,0,
2016-01-23, 08:57:04,VALID,920.31,VALID,0,VALID,74.6409,VALID,419.128,VALID,25.1636,VALID,129,VALID,0,
2016-01-23, 08:58:04,VALID,920.348,VALID,0,VALID,74.5189,VALID,406.665,VALID,25.2222,VALID,171,VALID,0,
2016-01-23, 08:59:04,VALID,920.324,VALID,0,VALID,73.3373,VALID,338.977,VALID,25.1617,VALID,133,VALID,0.642578,
2016-01-23, 09:00:04,VALID,920.361,VALID,0,VALID,73.2382,VALID,428.69,VALID,25.1245,VALID,112,VALID,0.216016,
2016-01-23, 09:01:04,VALID,920.337,VALID,0,VALID,73.9776,VALID,425.467,VALID,25.105,VALID,135,VALID,0,
2016-01-23, 09:02:04,VALID,920.368,VALID,0,VALID,75.3575,VALID,429.12,VALID,25.2203,VALID,152,VALID,0,
2016-01-23, 09:03:04,VALID,920.352,VALID,0,VALID,71.9117,VALID,431.806,VALID,25.3765,VALID,182,VALID,0,
2016-01-23, 09:04:04,VALID,920.333,VALID,0,VALID,71.8202,VALID,437.393,VALID,25.5347,VALID,181,VALID,0,
2016-01-23, 09:05:04,VALID,920.321,VALID,0,VALID,73.2382,VALID,436.319,VALID,25.5132,VALID,191,VALID,0,
2016-01-23, 09:06:04,VALID,920.3,VALID,0,VALID,73.261,VALID,443.947,VALID,25.5913,VALID,145,VALID,0,
2016-01-23, 09:07:04,VALID,920.331,VALID,0,VALID,71.1417,VALID,442.765,VALID,25.5913,VALID,139,VALID,0.345703,
2016-01-23, 09:08:04,VALID,920.332,VALID,0,VALID,73.1467,VALID,438.145,VALID,25.4937,VALID,73,VALID,0.00117188,
2016-01-23, 09:09:04,VALID,920.356,VALID,0,VALID,72.1023,VALID,446.955,VALID,25.2574,VALID,104,VALID,0.0140625,
2016-01-23, 09:10:04,VALID,920.377,VALID,0,VALID,73.848,VALID,455.873,VALID,25.2398,VALID,89,VALID,0,
2016-01-23, 09:11:04,VALID,920.375,VALID,0,VALID,73.5965,VALID,451.79,VALID,25.2203,VALID,103,VALID,0,
2016-01-23, 09:12:04,VALID,920.381,VALID,0,VALID,75.6243,VALID,457.484,VALID,25.2788,VALID,55,VALID,0.0289063,
2016-01-23, 09:13:04,VALID,920.375,VALID,0,VALID,73.2382,VALID,467.154,VALID,25.4937,VALID,165,VALID,0,
2016-01-23, 09:14:04,VALID,920.385,VALID,0,VALID,72.9561,VALID,428.046,VALID,25.6089,VALID,175,VALID,0.799609,
2016-01-23, 09:15:04,VALID,920.388,VALID,0,VALID,72.1709,VALID,473.708,VALID,25.5503,VALID,148,VALID,1.61445,
2016-01-23, 09:16:04,VALID,920.389,VALID,0,VALID,73.9166,VALID,472.956,VALID,25.5503,VALID,105,VALID,0,
2016-01-23, 09:17:04,VALID,920.416,VALID,0,VALID,72.9866,VALID,484.237,VALID,25.7476,VALID,109,VALID,0,
2016-01-23, 09:18:04,VALID,920.408,VALID,0,VALID,69.678,VALID,428.153,VALID,25.8843,VALID,122,VALID,0,
2016-01-23, 09:19:04,VALID,920.435,VALID,0,VALID,70.3108,VALID,286.975,VALID,25.7066,VALID,122,VALID,0,
2016-01-23, 09:20:04,VALID,920.398,VALID,0,VALID,69.4112,VALID,177.923,VALID,25.6694,VALID,132,VALID,0,
2016-01-23, 09:21:04,VALID,920.415,VALID,0,VALID,70.7148,VALID,383.243,VALID,25.7066,VALID,132,VALID,0,
2016-01-23, 09:22:04,VALID,920.399,VALID,0,VALID,70.6996,VALID,199.303,VALID,25.7847,VALID,132,VALID,0,
2016-01-23, 09:23:04,VALID,920.412,VALID,0,VALID,70.5014,VALID,159.335,VALID,25.9214,VALID,96,VALID,0,
2016-01-23, 09:24:04,VALID,920.42,VALID,0,VALID,71.8507,VALID,191.997,VALID,25.9214,VALID,96,VALID,0,
2016-01-23, 09:25:04,VALID,920.399,VALID,0,VALID,71.7516,VALID,136.343,VALID,25.8823,VALID,96,VALID,0,
2016-01-23, 09:26:04,VALID,920.447,VALID,0,VALID,72.2319,VALID,140.64,VALID,25.7456,VALID,96,VALID,0,
2016-01-23, 09:27:04,VALID,920.476,VALID,0,VALID,73.0857,VALID,162.666,VALID,25.6304,VALID,96,VALID,0,
2016-01-23, 09:28:04,VALID,920.524,VALID,0,VALID,73.3982,VALID,225.734,VALID,25.5737,VALID,117,VALID,0,
2016-01-23, 09:29:04,VALID,920.497,VALID,0,VALID,70.4251,VALID,531.189,VALID,25.5523,VALID,192,VALID,0,
2016-01-23, 09:30:04,VALID,920.515,VALID,0,VALID,70.3413,VALID,402.689,VALID,25.5327,VALID,237,VALID,0,
2016-01-23, 09:31:04,VALID,920.521,VALID,0,VALID,71.3552,VALID,264.628,VALID,25.5718,VALID,353,VALID,0,
2016-01-23, 09:32:04,VALID,920.515,VALID,0,VALID,72.026,VALID,528.503,VALID,25.6499,VALID,2,VALID,0,
2016-01-23, 09:33:04,VALID,920.487,VALID,0,VALID,72.4072,VALID,617.464,VALID,25.9234,VALID,3,VALID,0,
2016-01-23, 09:34:04,VALID,920.461,VALID,0,VALID,72.8875,VALID,599.199,VALID,26.275,VALID,3,VALID,0,
2016-01-23, 09:35:04,VALID,920.451,VALID,0,VALID,68.9614,VALID,561.058,VALID,26.4488,VALID,352,VALID,0,
2016-01-23, 09:36:04,VALID,920.468,VALID,0,VALID,67.6045,VALID,565.463,VALID,26.4292,VALID,7,VALID,0,
2016-01-23, 09:37:04,VALID,920.497,VALID,0,VALID,68.7251,VALID,576.314,VALID,26.312,VALID,9,VALID,0,
2016-01-23, 09:38:04,VALID,920.531,VALID,0,VALID,69.9677,VALID,592.645,VALID,26.2339,VALID,29,VALID,1.02031,
2016-01-23, 09:39:04,VALID,920.537,VALID,0,VALID,70.1049,VALID,590.174,VALID,26.2144,VALID,9,VALID,0,
2016-01-23, 09:40:04,VALID,920.52,VALID,0,VALID,68.7175,VALID,584.695,VALID,26.5074,VALID,13,VALID,0,
2016-01-23, 09:41:04,VALID,920.557,VALID,0,VALID,66.6973,VALID,580.29,VALID,26.8199,VALID,12,VALID,0,
2016-01-23, 09:42:04,VALID,920.527,VALID,0,VALID,64.5932,VALID,487.138,VALID,26.9958,VALID,27,VALID,0,
2016-01-23, 09:43:04,VALID,920.522,VALID,0,VALID,64.3797,VALID,203.923,VALID,27.2888,VALID,27,VALID,0,
2016-01-23, 09:44:04,VALID,920.52,VALID,0,VALID,65.3937,VALID,591.356,VALID,27.4626,VALID,16,VALID,0,
2016-01-23, 09:45:04,VALID,920.532,VALID,0,VALID,62.4282,VALID,624.018,VALID,27.5994,VALID,26,VALID,0,
2016-01-23, 09:46:04,VALID,920.552,VALID,0,VALID,63.7927,VALID,528.181,VALID,27.5819,VALID,340,VALID,0,
2016-01-23, 09:47:04,VALID,920.544,VALID,0,VALID,63.3811,VALID,530.222,VALID,27.5233,VALID,348,VALID,0,
2016-01-23, 09:48:04,VALID,920.554,VALID,0,VALID,64.3569,VALID,599.844,VALID,27.4256,VALID,354,VALID,0,
2016-01-23, 09:49:04,VALID,920.531,VALID,0,VALID,64.4712,VALID,619.721,VALID,27.2498,VALID,26,VALID,0,
2016-01-23, 09:50:04,VALID,920.553,VALID,0,VALID,65.7672,VALID,555.148,VALID,27.0739,VALID,29,VALID,0,
2016-01-23, 09:51:04,VALID,920.527,VALID,0,VALID,66.3008,VALID,405.161,VALID,27.1325,VALID,27,VALID,0,
2016-01-23, 09:52:04,VALID,920.518,VALID,0,VALID,62.169,VALID,185.014,VALID,27.1325,VALID,48,VALID,0.403516,
2016-01-23, 09:53:04,VALID,920.494,VALID,0,VALID,64.1892,VALID,166.211,VALID,26.8981,VALID,56,VALID,0,
2016-01-23, 09:54:04,VALID,920.51,VALID,0,VALID,66.6896,VALID,539.569,VALID,26.7027,VALID,71,VALID,0,
2016-01-23, 09:55:04,VALID,920.532,VALID,0,VALID,65.5614,VALID,477.039,VALID,26.7613,VALID,48,VALID,0,
2016-01-23, 09:56:04,VALID,920.538,VALID,0,VALID,65.7748,VALID,393.449,VALID,26.9958,VALID,125,VALID,0,
2016-01-23, 09:57:04,VALID,920.52,VALID,0,VALID,65.6452,VALID,339.621,VALID,27.1109,VALID,213,VALID,0,
2016-01-23, 09:58:04,VALID,920.453,VALID,0,VALID,63.8766,VALID,247.222,VALID,26.9156,VALID,287,VALID,1.67266,
2016-01-23, 09:59:04,VALID,920.498,VALID,0,VALID,65.3632,VALID,210.047,VALID,26.6832,VALID,207,VALID,0,
2016-01-23, 10:00:04,VALID,920.464,VALID,0,VALID,66.4152,VALID,180.286,VALID,26.7788,VALID,167,VALID,0,
2016-01-23, 10:01:04,VALID,920.477,VALID,0,VALID,65.4013,VALID,169.65,VALID,26.857,VALID,178,VALID,0,
2016-01-23, 10:02:04,VALID,920.476,VALID,0,VALID,65.7443,VALID,169.65,VALID,27.0328,VALID,142,VALID,0,
2016-01-23, 10:03:04,VALID,920.516,VALID,0,VALID,65.165,VALID,175.129,VALID,27.2672,VALID,94,VALID,0,
2016-01-23, 10:04:04,VALID,920.484,VALID,0,VALID,62.9084,VALID,199.196,VALID,27.4451,VALID,40,VALID,1.60469,
2016-01-23, 10:05:04,VALID,920.507,VALID,0,VALID,60.2707,VALID,221.221,VALID,27.367,VALID,41,VALID,0.00625,
2016-01-23, 10:06:04,VALID,920.427,VALID,0,VALID,62.8474,VALID,236.693,VALID,27.2868,VALID,59,VALID,0,
2016-01-23, 10:07:04,VALID,920.371,VALID,0,VALID,65.3251,VALID,235.189,VALID,27.1305,VALID,73,VALID,2.51055,
2016-01-23, 10:08:04,VALID,920.359,VALID,0,VALID,66.0416,VALID,186.196,VALID,26.9762,VALID,44,VALID,0.888281,
2016-01-23, 10:09:04,VALID,920.311,VALID,0,VALID,66.4152,VALID,154.608,VALID,27.0523,VALID,73,VALID,0,
2016-01-23, 10:10:04,VALID,920.316,VALID,0,VALID,64.9744,VALID,142.574,VALID,27.2868,VALID,50,VALID,0,
2016-01-23, 10:11:04,VALID,920.312,VALID,0,VALID,63.5031,VALID,139.996,VALID,27.3649,VALID,60,VALID,1.40898,
2016-01-23, 10:12:04,VALID,920.316,VALID,0,VALID,65.6986,VALID,143.112,VALID,27.3865,VALID,117,VALID,0.795703,
2016-01-23, 10:13:04,VALID,920.326,VALID,0,VALID,64.1968,VALID,149.988,VALID,27.2302,VALID,71,VALID,1.25625,
2016-01-23, 10:14:04,VALID,920.33,VALID,0,VALID,65.0277,VALID,169.327,VALID,27.0935,VALID,78,VALID,0.0101562,
2016-01-23, 10:15:04,VALID,920.352,VALID,0,VALID,65.4013,VALID,207.147,VALID,27.1716,VALID,22,VALID,2.08594,
2016-01-23, 10:16:04,VALID,920.365,VALID,0,VALID,63.4268,VALID,277.843,VALID,26.9762,VALID,40,VALID,0.752734,
2016-01-23, 10:17:04,VALID,920.307,VALID,0,VALID,65.4775,VALID,375.185,VALID,26.9176,VALID,54,VALID,0,
2016-01-23, 10:18:04,VALID,920.309,VALID,0,VALID,64.7838,VALID,498.957,VALID,26.9937,VALID,56,VALID,0,
2016-01-23, 10:19:04,VALID,920.344,VALID,0,VALID,66.4609,VALID,601.241,VALID,27.1695,VALID,346,VALID,0.127734,
2016-01-23, 10:20:04,VALID,920.342,VALID,0,VALID,66.1941,VALID,678.921,VALID,27.404,VALID,330,VALID,0,
2016-01-23, 10:21:04,VALID,920.328,VALID,0,VALID,64.9439,VALID,700.516,VALID,27.5603,VALID,346,VALID,0,
2016-01-23, 10:22:04,VALID,920.351,VALID,0,VALID,62.7788,VALID,708.897,VALID,27.8729,VALID,342,VALID,0,
2016-01-23, 10:23:04,VALID,920.342,VALID,0,VALID,61.3228,VALID,714.376,VALID,28.1465,VALID,272,VALID,0.147656,
2016-01-23, 10:24:04,VALID,920.292,VALID,0,VALID,57.7931,VALID,708.897,VALID,28.2247,VALID,180,VALID,0.398047,
2016-01-23, 10:25:04,VALID,920.274,VALID,0,VALID,57.5339,VALID,707.5,VALID,28.3202,VALID,179,VALID,0,
2016-01-23, 10:26:04,VALID,920.265,VALID,0,VALID,56.7792,VALID,731.889,VALID,28.4592,VALID,200,VALID,0.251953,
2016-01-23, 10:27:04,VALID,920.243,VALID,0,VALID,57.1451,VALID,661.085,VALID,28.4027,VALID,203,VALID,0.00195313,
2016-01-23, 10:28:04,VALID,920.255,VALID,0,VALID,59.455,VALID,429.013,VALID,28.4418,VALID,195,VALID,0.000390625,
2016-01-23, 10:29:04,VALID,920.261,VALID,0,VALID,58.6698,VALID,470.27,VALID,28.52,VALID,76,VALID,0,
2016-01-23, 10:30:04,VALID,920.25,VALID,0,VALID,59.4169,VALID,776.477,VALID,28.3832,VALID,3,VALID,1.3332,
2016-01-23, 10:31:04,VALID,920.187,VALID,0,VALID,57.4958,VALID,781.419,VALID,28.0314,VALID,20,VALID,2.54258,
2016-01-23, 10:32:04,VALID,920.19,VALID,0,VALID,60.6595,VALID,777.766,VALID,27.6015,VALID,25,VALID,1.99414,
2016-01-23, 10:33:04,VALID,920.16,VALID,0,VALID,60.0039,VALID,778.948,VALID,27.5017,VALID,305,VALID,0.521094,
2016-01-23, 10:34:04,VALID,920.19,VALID,0,VALID,59.8133,VALID,788.403,VALID,27.5819,VALID,22,VALID,1.76719,
2016-01-23, 10:35:04,VALID,920.202,VALID,0,VALID,60.3546,VALID,300.62,VALID,27.5428,VALID,25,VALID,0.129297,
2016-01-23, 10:36:04,VALID,920.171,VALID,0,VALID,61.1627,VALID,682.574,VALID,27.5212,VALID,344,VALID,0,
2016-01-23, 10:37:04,VALID,920.182,VALID,0,VALID,62.4968,VALID,581.042,VALID,27.5994,VALID,302,VALID,0,
2016-01-23, 10:38:04,VALID,920.174,VALID,0,VALID,60.7129,VALID,287.405,VALID,27.6601,VALID,7,VALID,0,
2016-01-23, 10:39:04,VALID,920.135,VALID,0,VALID,61.5667,VALID,787.759,VALID,27.6364,VALID,26,VALID,0,
2016-01-23, 10:40:04,VALID,920.15,VALID,0,VALID,62.3214,VALID,773.899,VALID,27.7145,VALID,23,VALID,0.407422,
2016-01-23, 10:41:04,VALID,920.146,VALID,0,VALID,62.6645,VALID,780.99,VALID,27.8708,VALID,7,VALID,0.316016,
2016-01-23, 10:42:04,VALID,920.11,VALID,0,VALID,62.8474,VALID,795.387,VALID,28.0293,VALID,353,VALID,0,
2016-01-23, 10:43:04,VALID,920.116,VALID,0,VALID,60.9187,VALID,818.057,VALID,28.2833,VALID,22,VALID,0.263672,
2016-01-23, 10:44:04,VALID,920.149,VALID,0,VALID,61.6887,VALID,836.859,VALID,28.4809,VALID,358,VALID,0,
2016-01-23, 10:45:04,VALID,920.159,VALID,0,VALID,58.6851,VALID,828.909,VALID,28.4592,VALID,304,VALID,0,
2016-01-23, 10:46:04,VALID,920.156,VALID,0,VALID,61.6506,VALID,819.454,VALID,28.3029,VALID,332,VALID,0,
2016-01-23, 10:47:04,VALID,920.148,VALID,0,VALID,57.2519,VALID,749.402,VALID,28.5178,VALID,330,VALID,0,
2016-01-23, 10:48:04,VALID,920.119,VALID,0,VALID,56.459,VALID,837.719,VALID,28.6938,VALID,56,VALID,0,
2016-01-23, 10:49:04,VALID,920.104,VALID,0,VALID,56.3904,VALID,842.446,VALID,28.7328,VALID,68,VALID,0.203125,
2016-01-23, 10:50:04,VALID,920.082,VALID,0,VALID,55.1478,VALID,832.347,VALID,28.6351,VALID,77,VALID,0,
2016-01-23, 10:51:04,VALID,920.058,VALID,0,VALID,56.177,VALID,819.239,VALID,28.6525,VALID,75,VALID,0,
2016-01-23, 10:52:04,VALID,920.045,VALID,0,VALID,56.2989,VALID,816.875,VALID,28.8306,VALID,42,VALID,0,
2016-01-23, 10:53:04,VALID,920.042,VALID,0,VALID,56.1083,VALID,832.669,VALID,29.026,VALID,41,VALID,0,
2016-01-23, 10:54:04,VALID,920.072,VALID,0,VALID,55.933,VALID,836.537,VALID,28.9674,VALID,268,VALID,0,
2016-01-23, 10:55:04,VALID,920.07,VALID,0,VALID,57.168,VALID,857.488,VALID,28.811,VALID,275,VALID,0,
2016-01-23, 10:56:04,VALID,920.072,VALID,0,VALID,59.1501,VALID,870.273,VALID,28.7502,VALID,240,VALID,0.0984375,
2016-01-23, 10:57:04,VALID,920.07,VALID,0,VALID,61.6582,VALID,863.934,VALID,28.6938,VALID,257,VALID,0,
2016-01-23, 10:58:04,VALID,920.043,VALID,0,VALID,57.7855,VALID,723.938,VALID,28.5157,VALID,327,VALID,0.191797,
2016-01-23, 10:59:04,VALID,920.022,VALID,0,VALID,58.2276,VALID,845.132,VALID,28.381,VALID,259,VALID,0,
2016-01-23, 11:00:04,VALID,919.972,VALID,0,VALID,58.3039,VALID,851.686,VALID,28.3029,VALID,269,VALID,0,
2016-01-23, 11:01:04,VALID,919.975,VALID,0,VALID,59.0586,VALID,850.397,VALID,28.1639,VALID,246,VALID,0,
2016-01-23, 11:02:04,VALID,919.947,VALID,0,VALID,61.6506,VALID,850.719,VALID,28.2247,VALID,246,VALID,0,
2016-01-23, 11:03:04,VALID,919.918,VALID,0,VALID,62.3214,VALID,855.339,VALID,28.2225,VALID,357,VALID,0,
2016-01-23, 11:04:04,VALID,919.924,VALID,0,VALID,57.3662,VALID,857.166,VALID,28.2225,VALID,271,VALID,0.237109,
2016-01-23, 11:05:04,VALID,919.89,VALID,0,VALID,57.8922,VALID,868.232,VALID,28.1053,VALID,258,VALID,0,